Time,TemperatureF,DewpointF,PressureIn,WindDirection,WindDirectionDegrees,WindSpeedMPH,WindSpeedGustMPH,Humidity,HourlyPrecipIn,Conditions,Clouds,dailyrainin,SolarRadiationWatts/m^2,SoftwareType,DateUTC
2013-03-22 00:00:00,38.5,33.1,29.54,ENE,59,11.0,16.0,81,0.00,,,0.00,0.0,meteohub,2013-03-22 05:00:00,
2013-03-22 00:05:00,38.5,33.4,29.57,NNE,28,13.0,16.0,82,0.00,,,0.00,0.0,meteohub,2013-03-22 05:05:00,
2013-03-22 00:10:00,38.8,33.8,29.57,NNE,24,12.0,15.0,82,0.00,,,0.00,0.0,meteohub,2013-03-22 05:10:00,
2013-03-22 00:15:00,39.0,34.0,29.58,NNE,28,12.0,18.0,82,0.00,,,0.00,0.0,meteohub,2013-03-22 05:15:00,
2013-03-22 00:20:00,38.8,33.8,29.58,NE,37,15.0,18.0,82,0.00,,,0.00,0.0,meteohub,2013-03-22 05:20:00,
2013-03-22 00:25:00,38.8,33.4,29.59,NNE,25,19.0,21.0,81,0.00,,,0.00,0.0,meteohub,2013-03-22 05:25:00,
2013-03-22 00:30:00,38.8,33.4,29.59,NE,38,16.0,23.0,81,0.00,,,0.00,0.0,meteohub,2013-03-22 05:30:00,
2013-03-22 00:35:00,38.7,33.3,29.59,NE,42,22.0,27.0,81,0.00,,,0.00,0.0,meteohub,2013-03-22 05:35:00,
2013-03-22 00:40:00,38.5,32.9,29.60,NE,38,16.0,27.0,80,0.00,,,0.00,0.0,meteohub,2013-03-22 05:40:00,
2013-03-22 00:45:00,38.5,33.1,29.60,NE,38,19.0,27.0,81,0.00,,,0.00,0.0,meteohub,2013-03-22 05:45:00,
2013-03-22 00:50:00,38.5,33.1,29.60,NNE,33,16.0,24.0,81,0.00,,,0.00,0.0,meteohub,2013-03-22 05:50:00,
2013-03-22 00:55:00,38.7,33.1,29.61,NE,36,19.0,23.0,80,0.00,,,0.00,0.0,meteohub,2013-03-22 05:55:00,
2013-03-22 01:00:00,38.7,32.7,29.61,NNE,28,24.0,24.0,79,0.00,,,0.00,0.0,meteohub,2013-03-22 06:00:00,
2013-03-22 01:06:00,38.5,32.5,29.61,NNE,17,16.0,26.0,79,0.00,,,0.00,0.0,meteohub,2013-03-22 06:06:00,
2013-03-22 01:11:00,38.3,32.0,29.61,NNE,30,17.0,26.0,78,0.00,,,0.00,0.0,meteohub,2013-03-22 06:11:00,
2013-03-22 01:16:00,38.1,32.2,29.62,NE,36,19.0,26.0,79,0.00,,,0.00,0.0,meteohub,2013-03-22 06:16:00,
2013-03-22 01:22:00,37.9,31.6,29.62,NE,36,19.0,25.0,78,0.00,,,0.00,0.0,meteohub,2013-03-22 06:22:00,
2013-03-22 01:27:00,37.9,31.6,29.62,NE,37,19.0,24.0,78,0.00,,,0.00,0.0,meteohub,2013-03-22 06:27:00,
2013-03-22 01:32:00,37.6,31.3,29.62,NE,46,19.0,25.0,78,0.00,,,0.00,0.0,meteohub,2013-03-22 06:32:00,
2013-03-22 01:37:00,37.2,30.9,29.62,NE,34,14.0,25.0,78,0.00,,,0.00,0.0,meteohub,2013-03-22 06:37:00,
2013-03-22 01:42:00,37.0,30.7,29.62,NE,37,14.0,25.0,78,0.00,,,0.00,0.0,meteohub,2013-03-22 06:42:00,
2013-03-22 01:47:00,36.9,30.6,29.62,NE,36,13.0,22.0,78,0.00,,,0.00,0.0,meteohub,2013-03-22 06:47:00,
2013-03-22 01:52:00,36.7,30.6,29.62,NE,40,15.0,22.0,78,0.00,,,0.00,0.0,meteohub,2013-03-22 06:52:00,
2013-03-22 01:57:00,36.3,30.4,29.62,NE,41,11.0,22.0,79,0.00,,,0.00,0.0,meteohub,2013-03-22 06:57:00,
2013-03-22 02:02:00,36.1,30.2,29.62,NE,46,13.0,19.0,79,0.00,,,0.00,0.0,meteohub,2013-03-22 07:02:00,
2013-03-22 02:07:00,36.0,30.0,29.63,NE,41,13.0,19.0,79,0.00,,,0.00,0.0,meteohub,2013-03-22 07:07:00,
2013-03-22 02:12:00,35.8,30.2,29.64,NE,49,14.0,18.0,80,0.00,,,0.00,0.0,meteohub,2013-03-22 07:12:00,
2013-03-22 02:17:00,35.4,29.8,29.64,NE,44,10.0,18.0,80,0.00,,,0.00,0.0,meteohub,2013-03-22 07:17:00,
2013-03-22 02:22:00,35.2,29.7,29.64,NE,43,10.0,17.0,80,0.00,,,0.00,0.0,meteohub,2013-03-22 07:22:00,
2013-03-22 02:27:00,35.1,29.8,29.64,NE,38,10.0,15.0,81,0.00,,,0.00,0.0,meteohub,2013-03-22 07:27:00,
2013-03-22 02:32:00,34.7,29.5,29.64,NNE,28,11.0,15.0,81,0.00,,,0.00,0.0,meteohub,2013-03-22 07:32:00,
2013-03-22 02:37:00,34.5,29.3,29.64,NE,34,10.0,14.0,81,0.00,,,0.00,0.0,meteohub,2013-03-22 07:37:00,
2013-03-22 02:42:00,34.3,29.5,29.63,NNE,23,8.0,13.0,82,0.00,,,0.00,0.0,meteohub,2013-03-22 07:42:00,
2013-03-22 02:47:00,34.2,29.3,29.64,NNE,23,8.0,13.0,82,0.00,,,0.00,0.0,meteohub,2013-03-22 07:47:00,
2013-03-22 02:52:00,34.0,29.1,29.64,NNE,21,6.0,13.0,82,0.00,,,0.00,0.0,meteohub,2013-03-22 07:52:00,
2013-03-22 02:58:00,33.6,28.9,29.64,NNE,24,5.0,12.0,83,0.00,,,0.00,0.0,meteohub,2013-03-22 07:58:00,
2013-03-22 03:03:00,33.4,28.8,29.64,NNE,19,7.0,10.0,83,0.00,,,0.00,0.0,meteohub,2013-03-22 08:03:00,
2013-03-22 03:08:00,33.3,28.6,29.64,NNE,20,7.0,10.0,83,0.00,,,0.00,0.0,meteohub,2013-03-22 08:08:00,
2013-03-22 03:13:00,33.1,28.8,29.65,NNE,26,6.0,11.0,84,0.00,,,0.00,0.0,meteohub,2013-03-22 08:13:00,
2013-03-22 03:18:00,33.3,28.9,29.65,NNE,20,11.0,11.0,84,0.00,,,0.00,0.0,meteohub,2013-03-22 08:18:00,
2013-03-22 03:23:00,33.1,28.8,29.65,NNE,17,10.0,13.0,84,0.00,,,0.00,0.0,meteohub,2013-03-22 08:23:00,
2013-03-22 03:28:00,32.9,28.6,29.65,NNE,26,6.0,13.0,84,0.00,,,0.00,0.0,meteohub,2013-03-22 08:28:00,
2013-03-22 03:33:00,32.9,28.6,29.65,NNE,33,6.0,13.0,84,0.00,,,0.00,0.0,meteohub,2013-03-22 08:33:00,
2013-03-22 03:38:00,32.7,28.4,29.65,NE,40,7.0,12.0,84,0.00,,,0.00,0.0,meteohub,2013-03-22 08:38:00,
2013-03-22 03:43:00,32.7,28.4,29.65,NE,34,5.0,10.0,84,0.00,,,0.00,0.0,meteohub,2013-03-22 08:43:00,
2013-03-22 03:48:00,32.5,28.2,29.65,NE,45,7.0,8.0,84,0.00,,,0.00,0.0,meteohub,2013-03-22 08:48:00,
2013-03-22 03:53:00,32.4,28.0,29.65,NE,39,5.0,8.0,84,0.00,,,0.00,0.0,meteohub,2013-03-22 08:53:00,
2013-03-22 03:58:00,32.0,27.7,29.65,NNE,29,5.0,8.0,84,0.00,,,0.00,0.0,meteohub,2013-03-22 08:58:00,
2013-03-22 04:03:00,31.8,27.9,29.66,NNE,18,5.0,8.0,85,0.00,,,0.00,0.0,meteohub,2013-03-22 09:03:00,
2013-03-22 04:08:00,31.5,27.5,29.66,NNE,13,6.0,7.0,85,0.00,,,0.00,0.0,meteohub,2013-03-22 09:08:00,
2013-03-22 04:13:00,31.3,27.5,29.66,North,10,5.0,7.0,86,0.00,,,0.00,0.0,meteohub,2013-03-22 09:13:00,
2013-03-22 04:18:00,30.9,27.1,29.65,NNE,28,5.0,7.0,86,0.00,,,0.00,0.0,meteohub,2013-03-22 09:18:00,
2013-03-22 04:23:00,30.6,27.0,29.65,NNE,26,3.0,7.0,86,0.00,,,0.00,0.0,meteohub,2013-03-22 09:23:00,
2013-03-22 04:28:00,30.4,26.8,29.66,NNE,26,3.0,7.0,86,0.00,,,0.00,0.0,meteohub,2013-03-22 09:28:00,
2013-03-22 04:33:00,30.0,26.4,29.66,NNE,25,3.0,6.0,86,0.00,,,0.00,0.0,meteohub,2013-03-22 09:33:00,
2013-03-22 04:38:00,29.8,26.4,29.66,NNE,17,5.0,5.0,87,0.00,,,0.00,0.0,meteohub,2013-03-22 09:38:00,
2013-03-22 04:43:00,29.8,26.4,29.66,NNE,15,6.0,6.0,87,0.00,,,0.00,0.0,meteohub,2013-03-22 09:43:00,
2013-03-22 04:48:00,29.7,26.2,29.66,NNE,13,3.0,7.0,87,0.00,,,0.00,0.0,meteohub,2013-03-22 09:48:00,
2013-03-22 04:54:00,29.5,26.4,29.67,North,10,4.0,7.0,88,0.00,,,0.00,0.0,meteohub,2013-03-22 09:54:00,
2013-03-22 04:59:00,29.3,26.2,29.66,NNE,12,7.0,7.0,88,0.00,,,0.00,0.0,meteohub,2013-03-22 09:59:00,
2013-03-22 05:04:00,28.9,25.9,29.66,North,10,3.0,8.0,88,0.00,,,0.00,0.0,meteohub,2013-03-22 10:04:00,
2013-03-22 05:09:00,28.8,25.7,29.66,North,9,6.0,8.0,88,0.00,,,0.00,0.0,meteohub,2013-03-22 10:09:00,
2013-03-22 05:14:00,28.8,25.9,29.66,NNE,12,6.0,8.0,89,0.00,,,0.00,0.0,meteohub,2013-03-22 10:14:00,
2013-03-22 05:19:00,28.8,25.9,29.66,North,5,5.0,8.0,89,0.00,,,0.00,0.0,meteohub,2013-03-22 10:19:00,
2013-03-22 05:24:00,28.4,25.3,29.66,North,9,5.0,8.0,88,0.00,,,0.00,0.0,meteohub,2013-03-22 10:24:00,
2013-03-22 05:29:00,28.2,25.3,29.67,North,5,4.0,8.0,89,0.00,,,0.00,0.0,meteohub,2013-03-22 10:29:00,
2013-03-22 05:34:00,28.2,25.3,29.66,North,5,4.0,7.0,89,0.00,,,0.00,0.0,meteohub,2013-03-22 10:34:00,
2013-03-22 05:39:00,28.4,25.5,29.67,North,5,4.0,6.0,89,0.00,,,0.00,0.0,meteohub,2013-03-22 10:39:00,
2013-03-22 05:44:00,28.0,25.2,29.67,North,5,4.0,5.0,89,0.00,,,0.00,0.0,meteohub,2013-03-22 10:44:00,
2013-03-22 05:49:00,27.9,25.0,29.67,North,0,7.0,7.0,89,0.00,,,0.00,0.0,meteohub,2013-03-22 10:49:00,
2013-03-22 05:54:00,27.7,24.8,29.67,North,355,6.0,6.0,89,0.00,,,0.00,0.0,meteohub,2013-03-22 10:54:00,
2013-03-22 05:59:00,27.7,25.2,29.67,NNW,348,6.0,7.0,90,0.00,,,0.00,0.0,meteohub,2013-03-22 10:59:00,
2013-03-22 06:04:00,27.7,25.2,29.68,NNW,344,5.0,7.0,90,0.00,,,0.00,0.0,meteohub,2013-03-22 11:04:00,
2013-03-22 06:09:00,27.7,25.2,29.68,NNW,344,4.0,7.0,90,0.00,,,0.00,0.0,meteohub,2013-03-22 11:09:00,
2013-03-22 06:14:00,27.3,24.8,29.68,NNW,344,3.0,7.0,90,0.00,,,0.00,0.0,meteohub,2013-03-22 11:14:00,
2013-03-22 06:20:00,27.0,24.1,29.69,NNW,344,3.0,6.0,89,0.00,,,0.00,0.0,meteohub,2013-03-22 11:20:00,
2013-03-22 06:25:00,26.8,23.9,29.69,NNW,344,3.0,5.0,89,0.00,,,0.00,0.0,meteohub,2013-03-22 11:25:00,
2013-03-22 06:30:00,26.1,23.2,29.68,NNW,336,5.0,5.0,89,0.00,,,0.00,0.0,meteohub,2013-03-22 11:30:00,
2013-03-22 06:35:00,26.2,23.7,29.68,NW,320,7.0,7.0,90,0.00,,,0.00,0.0,meteohub,2013-03-22 11:35:00,
2013-03-22 06:40:00,26.6,24.3,29.69,NW,317,6.0,7.0,91,0.00,,,0.00,0.0,meteohub,2013-03-22 11:40:00,
2013-03-22 06:45:00,26.4,24.1,29.70,NW,312,7.0,7.0,91,0.00,,,0.00,0.0,meteohub,2013-03-22 11:45:00,
2013-03-22 06:50:00,26.6,24.3,29.70,NW,312,6.0,8.0,91,0.00,,,0.00,0.0,meteohub,2013-03-22 11:50:00,
2013-03-22 06:55:00,26.4,24.1,29.71,NW,312,5.0,8.0,91,0.00,,,0.00,0.0,meteohub,2013-03-22 11:55:00,
2013-03-22 07:00:00,26.2,23.9,29.72,NW,312,6.0,8.0,91,0.00,,,0.00,0.0,meteohub,2013-03-22 12:00:00,
2013-03-22 07:05:00,26.2,23.7,29.71,NW,312,6.0,7.0,90,0.00,,,0.00,0.0,meteohub,2013-03-22 12:05:00,
2013-03-22 07:10:00,26.1,23.7,29.71,NW,312,6.0,7.0,91,0.00,,,0.00,0.0,meteohub,2013-03-22 12:10:00,
2013-03-22 07:15:00,26.1,23.7,29.71,NW,312,7.0,7.0,91,0.00,,,0.00,0.0,meteohub,2013-03-22 12:15:00,
2013-03-22 07:20:00,26.2,23.9,29.71,NW,321,6.0,7.0,91,0.00,,,0.00,0.0,meteohub,2013-03-22 12:20:00,
2013-03-22 07:25:00,26.2,23.9,29.71,NW,322,8.0,8.0,91,0.00,,,0.00,0.0,meteohub,2013-03-22 12:25:00,
2013-03-22 07:30:00,26.4,24.1,29.70,NW,325,8.0,8.0,91,0.00,,,0.00,0.0,meteohub,2013-03-22 12:30:00,
2013-03-22 07:35:00,26.8,24.4,29.70,NW,325,10.0,10.0,91,0.00,,,0.00,0.0,meteohub,2013-03-22 12:35:00,
2013-03-22 07:40:00,26.8,24.4,29.70,NW,325,8.0,10.0,91,0.00,,,0.00,0.0,meteohub,2013-03-22 12:40:00,
2013-03-22 07:45:00,26.6,24.3,29.70,NW,325,7.0,10.0,91,0.00,,,0.00,0.0,meteohub,2013-03-22 12:45:00,
2013-03-22 07:50:00,26.8,24.4,29.70,NNW,331,8.0,10.0,91,0.00,,,0.00,7.0,meteohub,2013-03-22 12:50:00,
2013-03-22 07:55:00,27.0,24.6,29.70,NNW,334,9.0,10.0,91,0.00,,,0.00,14.0,meteohub,2013-03-22 12:55:00,
2013-03-22 08:00:00,27.0,24.6,29.70,NNW,334,8.0,11.0,91,0.00,,,0.00,21.0,meteohub,2013-03-22 13:00:00,
2013-03-22 08:05:00,27.1,24.8,29.71,NNW,333,7.0,11.0,91,0.00,,,0.00,28.0,meteohub,2013-03-22 13:05:00,
2013-03-22 08:11:00,27.3,25.0,29.71,NNW,333,8.0,11.0,91,0.00,,,0.00,37.0,meteohub,2013-03-22 13:11:00,
2013-03-22 08:16:00,27.7,25.3,29.71,NNW,333,8.0,10.0,91,0.00,,,0.00,37.0,meteohub,2013-03-22 13:16:00,
2013-03-22 08:21:00,27.7,25.3,29.71,NNW,333,10.0,10.0,91,0.00,,,0.00,35.0,meteohub,2013-03-22 13:21:00,
2013-03-22 08:26:00,27.7,25.2,29.71,NNW,333,9.0,10.0,90,0.00,,,0.00,62.0,meteohub,2013-03-22 13:26:00,
2013-03-22 08:31:00,27.7,25.3,29.72,NNW,333,7.0,10.0,91,0.00,,,0.00,90.0,meteohub,2013-03-22 13:31:00,
2013-03-22 08:36:00,28.2,25.9,29.71,North,350,7.0,10.0,91,0.00,,,0.00,111.0,meteohub,2013-03-22 13:36:00,
2013-03-22 08:41:00,28.8,26.4,29.72,North,355,9.0,10.0,91,0.00,,,0.00,104.0,meteohub,2013-03-22 13:41:00,
2013-03-22 08:46:00,29.3,27.0,29.73,NNW,348,9.0,10.0,91,0.00,,,0.00,146.0,meteohub,2013-03-22 13:46:00,
2013-03-22 08:52:00,29.8,27.3,29.73,North,350,7.0,10.0,90,0.00,,,0.00,139.0,meteohub,2013-03-22 13:52:00,
2013-03-22 08:57:00,30.4,27.9,29.73,North,355,8.0,10.0,90,0.00,,,0.00,156.0,meteohub,2013-03-22 13:57:00,
2013-03-22 09:02:00,30.9,28.0,29.74,North,355,7.0,10.0,89,0.00,,,0.00,193.0,meteohub,2013-03-22 14:02:00,
2013-03-22 09:07:00,31.5,28.6,29.74,NNW,344,11.0,11.0,89,0.00,,,0.00,134.0,meteohub,2013-03-22 14:07:00,
2013-03-22 09:12:00,31.8,28.8,29.74,North,355,6.0,11.0,88,0.00,,,0.00,230.0,meteohub,2013-03-22 14:12:00,
2013-03-22 09:17:00,32.2,28.8,29.74,North,355,5.0,11.0,87,0.00,,,0.00,250.0,meteohub,2013-03-22 14:17:00,
2013-03-22 09:22:00,32.4,28.9,29.75,North,351,7.0,11.0,87,0.00,,,0.00,265.0,meteohub,2013-03-22 14:22:00,
2013-03-22 09:27:00,32.7,29.3,29.75,NNW,345,5.0,9.0,87,0.00,,,0.00,285.0,meteohub,2013-03-22 14:27:00,
2013-03-22 09:32:00,33.3,29.8,29.75,NNW,342,7.0,10.0,87,0.00,,,0.00,302.0,meteohub,2013-03-22 14:32:00,
2013-03-22 09:37:00,33.6,29.7,29.75,NNW,339,5.0,10.0,85,0.00,,,0.00,320.0,meteohub,2013-03-22 14:37:00,
2013-03-22 09:42:00,34.3,30.4,29.76,NNW,341,6.0,10.0,85,0.00,,,0.00,338.0,meteohub,2013-03-22 14:42:00,
2013-03-22 09:47:00,34.7,30.4,29.76,NNW,337,7.0,10.0,84,0.00,,,0.00,352.0,meteohub,2013-03-22 14:47:00,
2013-03-22 09:52:00,35.4,31.1,29.77,NNW,340,5.0,9.0,84,0.00,,,0.00,376.0,meteohub,2013-03-22 14:52:00,
2013-03-22 09:57:00,36.0,30.9,29.77,NNW,329,7.0,9.0,82,0.00,,,0.00,394.0,meteohub,2013-03-22 14:57:00,
2013-03-22 10:02:00,36.5,31.3,29.77,NW,326,5.0,9.0,81,0.00,,,0.00,408.0,meteohub,2013-03-22 15:02:00,
2013-03-22 10:07:00,37.0,31.5,29.77,NNW,337,6.0,9.0,80,0.00,,,0.00,429.0,meteohub,2013-03-22 15:07:00,
2013-03-22 10:12:00,37.2,31.6,29.77,NNW,333,7.0,10.0,80,0.00,,,0.00,443.0,meteohub,2013-03-22 15:12:00,
2013-03-22 10:17:00,38.1,31.8,29.77,NW,326,9.0,10.0,78,0.00,,,0.00,461.0,meteohub,2013-03-22 15:17:00,
2013-03-22 10:23:00,38.8,32.2,29.78,NNW,336,7.0,10.0,77,0.00,,,0.00,471.0,meteohub,2013-03-22 15:23:00,
2013-03-22 10:28:00,39.0,32.2,29.78,NNW,331,9.0,10.0,76,0.00,,,0.00,494.0,meteohub,2013-03-22 15:28:00,
2013-03-22 10:33:00,39.0,31.5,29.78,NNW,333,6.0,10.0,74,0.00,,,0.00,515.0,meteohub,2013-03-22 15:33:00,
2013-03-22 10:38:00,39.6,31.6,29.78,NNW,333,10.0,11.0,73,0.00,,,0.00,529.0,meteohub,2013-03-22 15:38:00,
2013-03-22 10:43:00,39.6,31.6,29.78,NW,323,8.0,12.0,73,0.00,,,0.00,541.0,meteohub,2013-03-22 15:43:00,
2013-03-22 10:48:00,40.3,32.0,29.78,NNW,342,9.0,12.0,72,0.00,,,0.00,555.0,meteohub,2013-03-22 15:48:00,
2013-03-22 10:53:00,40.5,31.5,29.78,NNW,327,6.0,12.0,70,0.00,,,0.00,573.0,meteohub,2013-03-22 15:53:00,
2013-03-22 10:58:00,41.2,32.2,29.78,North,0,4.0,11.0,70,0.00,,,0.00,587.0,meteohub,2013-03-22 15:58:00,
2013-03-22 11:03:00,40.6,31.6,29.78,NNW,328,8.0,11.0,70,0.00,,,0.00,606.0,meteohub,2013-03-22 16:03:00,
2013-03-22 11:08:00,40.6,32.4,29.78,NNW,331,9.0,12.0,72,0.00,,,0.00,617.0,meteohub,2013-03-22 16:08:00,
2013-03-22 11:13:00,41.2,32.5,29.78,NNW,341,5.0,12.0,71,0.00,,,0.00,633.0,meteohub,2013-03-22 16:13:00,
2013-03-22 11:18:00,41.0,32.7,29.78,NW,309,9.0,12.0,72,0.00,,,0.00,649.0,meteohub,2013-03-22 16:18:00,
2013-03-22 11:23:00,41.5,32.9,29.78,WNW,297,8.0,12.0,71,0.00,,,0.00,654.0,meteohub,2013-03-22 16:23:00,
2013-03-22 11:28:00,41.7,32.7,29.78,NW,321,5.0,12.0,70,0.00,,,0.00,664.0,meteohub,2013-03-22 16:28:00,
2013-03-22 11:34:00,41.9,33.3,29.78,NW,311,13.0,13.0,71,0.00,,,0.00,663.0,meteohub,2013-03-22 16:34:00,
2013-03-22 11:39:00,42.3,33.3,29.77,WNW,294,11.0,13.0,70,0.00,,,0.00,701.0,meteohub,2013-03-22 16:39:00,
2013-03-22 11:44:00,43.0,33.4,29.77,NW,318,8.0,15.0,69,0.00,,,0.00,708.0,meteohub,2013-03-22 16:44:00,
2013-03-22 11:49:00,43.0,33.4,29.77,NW,323,8.0,15.0,69,0.00,,,0.00,698.0,meteohub,2013-03-22 16:49:00,
2013-03-22 11:54:00,43.3,33.4,29.77,NNW,331,8.0,15.0,68,0.00,,,0.00,742.0,meteohub,2013-03-22 16:54:00,
2013-03-22 11:59:00,43.7,33.4,29.77,NW,326,6.0,12.0,67,0.00,,,0.00,756.0,meteohub,2013-03-22 16:59:00,
2013-03-22 12:04:00,44.2,33.6,29.77,NNW,342,7.0,12.0,66,0.00,,,0.00,761.0,meteohub,2013-03-22 17:04:00,
2013-03-22 12:09:00,44.2,34.0,29.76,WNW,303,9.0,11.0,67,0.00,,,0.00,758.0,meteohub,2013-03-22 17:09:00,
2013-03-22 12:14:00,44.6,34.3,29.76,NW,321,5.0,13.0,67,0.00,,,0.00,775.0,meteohub,2013-03-22 17:14:00,
2013-03-22 12:19:00,44.1,33.4,29.76,NNW,335,5.0,13.0,66,0.00,,,0.00,768.0,meteohub,2013-03-22 17:19:00,
2013-03-22 12:24:00,44.4,34.2,29.76,NNW,340,5.0,13.0,67,0.00,,,0.00,795.0,meteohub,2013-03-22 17:24:00,
2013-03-22 12:29:00,44.8,33.8,29.75,NNW,334,2.0,12.0,65,0.00,,,0.00,805.0,meteohub,2013-03-22 17:29:00,
2013-03-22 12:34:00,45.1,34.5,29.75,NNW,334,2.0,11.0,66,0.00,,,0.00,809.0,meteohub,2013-03-22 17:34:00,
2013-03-22 12:39:00,46.0,34.5,29.75,North,351,2.0,10.0,64,0.00,,,0.00,814.0,meteohub,2013-03-22 17:39:00,
2013-03-22 12:44:00,46.0,34.2,29.75,NNW,344,3.0,10.0,63,0.00,,,0.00,826.0,meteohub,2013-03-22 17:44:00,
2013-03-22 12:49:00,46.8,34.5,29.75,NNW,344,3.0,10.0,62,0.00,,,0.00,828.0,meteohub,2013-03-22 17:49:00,
2013-03-22 12:55:00,47.1,34.0,29.74,North,355,6.0,10.0,60,0.00,,,0.00,838.0,meteohub,2013-03-22 17:55:00,
2013-03-22 13:00:00,47.5,33.8,29.74,North,5,2.0,8.0,59,0.00,,,0.00,844.0,meteohub,2013-03-22 18:00:00,
2013-03-22 13:05:00,47.7,34.0,29.74,North,5,3.0,8.0,59,0.00,,,0.00,851.0,meteohub,2013-03-22 18:05:00,
2013-03-22 13:10:00,48.7,32.9,29.74,NE,44,6.0,8.0,54,0.00,,,0.00,860.0,meteohub,2013-03-22 18:10:00,
2013-03-22 13:15:00,48.6,32.2,29.74,NE,46,5.0,8.0,53,0.00,,,0.00,867.0,meteohub,2013-03-22 18:15:00,
2013-03-22 13:20:00,48.9,33.4,29.73,ENE,57,4.0,8.0,55,0.00,,,0.00,867.0,meteohub,2013-03-22 18:20:00,
2013-03-22 13:25:00,49.3,32.9,29.73,ENE,57,0.0,8.0,53,0.00,,,0.00,874.0,meteohub,2013-03-22 18:25:00,
2013-03-22 13:30:00,49.3,32.9,29.73,NNE,25,2.0,8.0,53,0.00,,,0.00,877.0,meteohub,2013-03-22 18:30:00,
2013-03-22 13:35:00,49.5,33.1,29.73,NNE,25,4.0,7.0,53,0.00,,,0.00,874.0,meteohub,2013-03-22 18:35:00,
2013-03-22 13:40:00,49.8,33.4,29.73,NNE,25,0.0,6.0,53,0.00,,,0.00,877.0,meteohub,2013-03-22 18:40:00,
2013-03-22 13:45:00,50.4,32.4,29.72,ENE,57,7.0,11.0,50,0.00,,,0.00,872.0,meteohub,2013-03-22 18:45:00,
2013-03-22 13:50:00,50.4,32.9,29.72,ENE,57,3.0,11.0,51,0.00,,,0.00,872.0,meteohub,2013-03-22 18:50:00,
2013-03-22 13:55:00,50.4,32.0,29.72,ENE,57,0.0,11.0,49,0.00,,,0.00,858.0,meteohub,2013-03-22 18:55:00,
2013-03-22 14:00:00,50.7,32.2,29.72,ENE,57,2.0,8.0,49,0.00,,,0.00,865.0,meteohub,2013-03-22 19:00:00,
2013-03-22 14:06:00,50.9,31.8,29.71,ENE,57,0.0,7.0,48,0.00,,,0.00,867.0,meteohub,2013-03-22 19:06:00,
2013-03-22 14:11:00,51.1,31.6,29.71,East,82,5.0,7.0,47,0.00,,,0.00,870.0,meteohub,2013-03-22 19:11:00,
2013-03-22 14:16:00,51.1,31.6,29.71,ESE,111,0.0,7.0,47,0.00,,,0.00,870.0,meteohub,2013-03-22 19:16:00,
2013-03-22 14:21:00,51.6,32.0,29.70,SSE,153,5.0,7.0,47,0.00,,,0.00,870.0,meteohub,2013-03-22 19:21:00,
2013-03-22 14:26:00,51.6,31.5,29.70,SSE,153,2.0,7.0,46,0.00,,,0.00,867.0,meteohub,2013-03-22 19:26:00,
2013-03-22 14:31:00,52.0,31.3,29.69,SSE,153,3.0,7.0,45,0.00,,,0.00,860.0,meteohub,2013-03-22 19:31:00,
2013-03-22 14:36:00,51.4,30.7,29.68,SSE,153,1.0,7.0,45,0.00,,,0.00,854.0,meteohub,2013-03-22 19:36:00,
2013-03-22 14:42:00,51.6,31.5,29.68,SE,140,4.0,5.0,46,0.00,,,0.00,849.0,meteohub,2013-03-22 19:42:00,
2013-03-22 14:47:00,52.3,31.1,29.68,SE,130,0.0,6.0,44,0.00,,,0.00,849.0,meteohub,2013-03-22 19:47:00,
2013-03-22 14:52:00,52.9,30.9,29.67,SE,130,0.0,10.0,43,0.00,,,0.00,847.0,meteohub,2013-03-22 19:52:00,
2013-03-22 14:57:00,53.6,31.6,29.67,SE,133,3.0,10.0,43,0.00,,,0.00,846.0,meteohub,2013-03-22 19:57:00,
2013-03-22 15:02:00,53.4,31.5,29.66,ESE,116,10.0,10.0,43,0.00,,,0.00,837.0,meteohub,2013-03-22 20:02:00,
2013-03-22 15:07:00,52.9,30.9,29.66,ESE,123,7.0,12.0,43,0.00,,,0.00,831.0,meteohub,2013-03-22 20:07:00,
2013-03-22 15:12:00,53.1,31.6,29.66,ESE,105,4.0,15.0,44,0.00,,,0.00,824.0,meteohub,2013-03-22 20:12:00,
2013-03-22 15:17:00,53.6,31.6,29.65,SSE,165,4.0,15.0,43,0.00,,,0.00,814.0,meteohub,2013-03-22 20:17:00,
2013-03-22 15:22:00,53.8,30.6,29.65,SE,126,2.0,15.0,41,0.00,,,0.00,805.0,meteohub,2013-03-22 20:22:00,
2013-03-22 15:27:00,54.1,30.4,29.65,SE,130,8.0,10.0,40,0.00,,,0.00,802.0,meteohub,2013-03-22 20:27:00,
2013-03-22 15:32:00,54.1,29.1,29.65,SE,126,2.0,12.0,38,0.00,,,0.00,795.0,meteohub,2013-03-22 20:32:00,
2013-03-22 15:37:00,53.8,30.0,29.64,SE,131,4.0,14.0,40,0.00,,,0.00,782.0,meteohub,2013-03-22 20:37:00,
2013-03-22 15:42:00,54.1,30.4,29.64,ESE,123,7.0,14.0,40,0.00,,,0.00,772.0,meteohub,2013-03-22 20:42:00,
2013-03-22 15:47:00,54.0,30.7,29.64,ESE,123,4.0,15.0,41,0.00,,,0.00,765.0,meteohub,2013-03-22 20:47:00,
2013-03-22 15:52:00,54.3,30.6,29.63,ESE,123,2.0,15.0,40,0.00,,,0.00,752.0,meteohub,2013-03-22 20:52:00,
2013-03-22 15:57:00,54.9,30.4,29.63,ESE,123,0.0,15.0,39,0.00,,,0.00,751.0,meteohub,2013-03-22 20:57:00,
2013-03-22 16:02:00,54.9,30.4,29.63,SE,132,7.0,10.0,39,0.00,,,0.00,738.0,meteohub,2013-03-22 21:02:00,
2013-03-22 16:08:00,54.9,30.4,29.62,East,95,10.0,13.0,39,0.00,,,0.00,722.0,meteohub,2013-03-22 21:08:00,
2013-03-22 16:13:00,54.7,29.5,29.62,SE,140,0.0,13.0,38,0.00,,,0.00,712.0,meteohub,2013-03-22 21:13:00,
2013-03-22 16:18:00,54.9,29.1,29.62,SE,126,0.0,13.0,37,0.00,,,0.00,700.0,meteohub,2013-03-22 21:18:00,
2013-03-22 16:23:00,55.6,30.4,29.61,SE,127,8.0,13.0,38,0.00,,,0.00,687.0,meteohub,2013-03-22 21:23:00,
2013-03-22 16:28:00,55.2,29.5,29.61,ESE,115,7.0,12.0,37,0.00,,,0.00,671.0,meteohub,2013-03-22 21:28:00,
2013-03-22 16:33:00,55.4,30.2,29.61,SE,131,8.0,12.0,38,0.00,,,0.00,657.0,meteohub,2013-03-22 21:33:00,
2013-03-22 16:38:00,55.0,29.8,29.61,ESE,123,5.0,13.0,38,0.00,,,0.00,647.0,meteohub,2013-03-22 21:38:00,
2013-03-22 16:43:00,55.2,29.5,29.61,ESE,119,1.0,13.0,37,0.00,,,0.00,636.0,meteohub,2013-03-22 21:43:00,
2013-03-22 16:48:00,55.0,29.3,29.62,ESE,107,7.0,12.0,37,0.00,,,0.00,617.0,meteohub,2013-03-22 21:48:00,
2013-03-22 16:53:00,55.2,29.5,29.62,East,100,9.0,15.0,37,0.00,,,0.00,599.0,meteohub,2013-03-22 21:53:00,
2013-03-22 16:58:00,55.2,29.5,29.62,ESE,121,3.0,15.0,37,0.00,,,0.00,585.0,meteohub,2013-03-22 21:58:00,
2013-03-22 17:03:00,55.2,29.5,29.61,SE,132,5.0,15.0,37,0.00,,,0.00,573.0,meteohub,2013-03-22 22:03:00,
2013-03-22 17:08:00,55.6,29.7,29.61,SE,126,1.0,12.0,37,0.00,,,0.00,559.0,meteohub,2013-03-22 22:08:00,
2013-03-22 17:13:00,55.9,30.7,29.61,SE,127,9.0,10.0,38,0.00,,,0.00,540.0,meteohub,2013-03-22 22:13:00,
2013-03-22 17:18:00,56.1,29.5,29.61,SE,133,7.0,11.0,36,0.00,,,0.00,524.0,meteohub,2013-03-22 22:18:00,
2013-03-22 17:23:00,55.9,29.3,29.61,SE,139,7.0,11.0,36,0.00,,,0.00,512.0,meteohub,2013-03-22 22:23:00,
2013-03-22 17:28:00,55.9,29.3,29.61,SE,126,1.0,14.0,36,0.00,,,0.00,496.0,meteohub,2013-03-22 22:28:00,
2013-03-22 17:33:00,56.5,29.8,29.61,ESE,107,8.0,14.0,36,0.00,,,0.00,476.0,meteohub,2013-03-22 22:33:00,
2013-03-22 17:38:00,56.5,29.1,29.61,SE,129,2.0,14.0,35,0.00,,,0.00,462.0,meteohub,2013-03-22 22:38:00,
2013-03-22 17:43:00,56.1,29.5,29.61,SSE,150,2.0,11.0,36,0.00,,,0.00,439.0,meteohub,2013-03-22 22:43:00,
2013-03-22 17:48:00,56.5,29.8,29.61,SE,134,1.0,11.0,36,0.00,,,0.00,422.0,meteohub,2013-03-22 22:48:00,
2013-03-22 17:53:00,56.1,28.8,29.61,ESE,114,4.0,14.0,35,0.00,,,0.00,399.0,meteohub,2013-03-22 22:53:00,
2013-03-22 17:58:00,56.1,29.5,29.61,SE,136,6.0,14.0,36,0.00,,,0.00,381.0,meteohub,2013-03-22 22:58:00,
2013-03-22 18:03:00,56.1,29.5,29.61,South,178,6.0,14.0,36,0.00,,,0.00,366.0,meteohub,2013-03-22 23:03:00,
2013-03-22 18:08:00,56.1,29.5,29.62,South,177,11.0,13.0,36,0.00,,,0.00,350.0,meteohub,2013-03-22 23:08:00,
2013-03-22 18:13:00,56.1,29.5,29.62,SSE,153,6.0,13.0,36,0.00,,,0.00,329.0,meteohub,2013-03-22 23:13:00,
2013-03-22 18:19:00,55.9,30.0,29.62,SE,144,2.0,13.0,37,0.00,,,0.00,311.0,meteohub,2013-03-22 23:19:00,
2013-03-22 18:24:00,55.9,29.3,29.61,SSE,153,4.0,12.0,36,0.00,,,0.00,294.0,meteohub,2013-03-22 23:24:00,
2013-03-22 18:29:00,56.1,29.5,29.61,South,169,8.0,10.0,36,0.00,,,0.00,271.0,meteohub,2013-03-22 23:29:00,
2013-03-22 18:34:00,56.1,29.5,29.61,SE,141,1.0,8.0,36,0.00,,,0.00,251.0,meteohub,2013-03-22 23:34:00,
2013-03-22 18:39:00,55.9,29.3,29.61,SE,132,4.0,8.0,36,0.00,,,0.00,234.0,meteohub,2013-03-22 23:39:00,
2013-03-22 18:44:00,55.8,29.8,29.60,SE,131,5.0,8.0,37,0.00,,,0.00,216.0,meteohub,2013-03-22 23:44:00,
2013-03-22 18:49:00,55.8,29.8,29.60,SE,139,5.0,8.0,37,0.00,,,0.00,193.0,meteohub,2013-03-22 23:49:00,
2013-03-22 18:54:00,55.8,29.8,29.60,SE,130,8.0,8.0,37,0.00,,,0.00,174.0,meteohub,2013-03-22 23:54:00,
2013-03-22 18:59:00,55.4,29.5,29.61,SE,129,4.0,9.0,37,0.00,,,0.00,149.0,meteohub,2013-03-22 23:59:00,
2013-03-22 19:04:00,55.4,29.5,29.61,SE,129,7.0,10.0,37,0.00,,,0.00,132.0,meteohub,2013-03-23 00:04:00,
2013-03-22 19:09:00,55.0,29.3,29.61,SE,128,6.0,10.0,37,0.00,,,0.00,113.0,meteohub,2013-03-23 00:09:00,
2013-03-22 19:14:00,54.9,29.7,29.61,ESE,119,8.0,10.0,38,0.00,,,0.00,93.0,meteohub,2013-03-23 00:14:00,
2013-03-22 19:20:00,54.7,29.5,29.61,ESE,106,10.0,11.0,38,0.00,,,0.00,76.0,meteohub,2013-03-23 00:20:00,
2013-03-22 19:25:00,54.3,29.3,29.61,ESE,123,9.0,12.0,38,0.00,,,0.00,62.0,meteohub,2013-03-23 00:25:00,
2013-03-22 19:30:00,54.1,29.1,29.61,SE,128,8.0,12.0,38,0.00,,,0.00,49.0,meteohub,2013-03-23 00:30:00,
2013-03-22 19:35:00,53.8,29.5,29.61,SE,129,8.0,12.0,39,0.00,,,0.00,37.0,meteohub,2013-03-23 00:35:00,
2013-03-22 19:40:00,53.4,29.1,29.61,SE,129,6.0,12.0,39,0.00,,,0.00,26.0,meteohub,2013-03-23 00:40:00,
2013-03-22 19:45:00,53.1,28.8,29.61,SE,127,9.0,10.0,39,0.00,,,0.00,18.0,meteohub,2013-03-23 00:45:00,
2013-03-22 19:50:00,52.5,28.9,29.62,SE,126,8.0,12.0,40,0.00,,,0.00,12.0,meteohub,2013-03-23 00:50:00,
2013-03-22 19:55:00,52.0,28.4,29.62,SE,126,8.0,12.0,40,0.00,,,0.00,7.0,meteohub,2013-03-23 00:55:00,
2013-03-22 20:00:00,51.3,28.4,29.62,SE,128,5.0,10.0,41,0.00,,,0.00,0.0,meteohub,2013-03-23 01:00:00,
2013-03-22 20:05:00,50.4,28.2,29.62,SE,129,6.0,10.0,42,0.00,,,0.00,0.0,meteohub,2013-03-23 01:05:00,
2013-03-22 20:11:00,49.6,28.0,29.62,SE,130,6.0,8.0,43,0.00,,,0.00,0.0,meteohub,2013-03-23 01:11:00,
2013-03-22 20:16:00,49.1,28.0,29.62,SE,131,7.0,9.0,44,0.00,,,0.00,0.0,meteohub,2013-03-23 01:16:00,
2013-03-22 20:21:00,48.7,28.4,29.62,SE,130,8.0,9.0,45,0.00,,,0.00,0.0,meteohub,2013-03-23 01:21:00,
2013-03-22 20:26:00,48.6,28.2,29.62,SE,130,8.0,9.0,45,0.00,,,0.00,0.0,meteohub,2013-03-23 01:26:00,
2013-03-22 20:31:00,48.4,28.6,29.62,SE,129,8.0,9.0,46,0.00,,,0.00,0.0,meteohub,2013-03-23 01:31:00,
2013-03-22 20:36:00,47.8,28.6,29.62,SE,128,8.0,9.0,47,0.00,,,0.00,0.0,meteohub,2013-03-23 01:36:00,
2013-03-22 20:41:00,47.5,28.8,29.62,SE,128,8.0,9.0,48,0.00,,,0.00,0.0,meteohub,2013-03-23 01:41:00,
2013-03-22 20:46:00,46.9,28.2,29.62,SE,129,8.0,9.0,48,0.00,,,0.00,0.0,meteohub,2013-03-23 01:46:00,
2013-03-22 20:51:00,46.4,28.2,29.62,SE,128,8.0,10.0,49,0.00,,,0.00,0.0,meteohub,2013-03-23 01:51:00,
2013-03-22 20:57:00,46.2,28.0,29.62,SE,128,9.0,10.0,49,0.00,,,0.00,0.0,meteohub,2013-03-23 01:57:00,
2013-03-22 21:02:00,46.2,28.6,29.61,SE,129,9.0,11.0,50,0.00,,,0.00,0.0,meteohub,2013-03-23 02:02:00,
2013-03-22 21:07:00,46.2,28.6,29.61,SE,129,9.0,11.0,50,0.00,,,0.00,0.0,meteohub,2013-03-23 02:07:00,
2013-03-22 21:12:00,46.6,28.9,29.61,SE,128,12.0,12.0,50,0.00,,,0.00,0.0,meteohub,2013-03-23 02:12:00,
2013-03-22 21:17:00,46.8,29.1,29.61,SE,130,11.0,12.0,50,0.00,,,0.00,0.0,meteohub,2013-03-23 02:17:00,
2013-03-22 21:22:00,46.8,29.1,29.61,SE,129,10.0,13.0,50,0.00,,,0.00,0.0,meteohub,2013-03-23 02:22:00,
2013-03-22 21:27:00,46.6,28.9,29.62,SE,132,10.0,15.0,50,0.00,,,0.00,0.0,meteohub,2013-03-23 02:27:00,
2013-03-22 21:32:00,46.4,29.3,29.61,SE,130,9.0,15.0,51,0.00,,,0.00,0.0,meteohub,2013-03-23 02:32:00,
2013-03-22 21:37:00,46.0,29.5,29.61,SE,128,12.0,15.0,52,0.00,,,0.00,0.0,meteohub,2013-03-23 02:37:00,
2013-03-22 21:42:00,46.0,29.5,29.61,SE,128,12.0,15.0,52,0.00,,,0.00,0.0,meteohub,2013-03-23 02:42:00,
2013-03-22 21:47:00,46.0,29.8,29.61,SE,126,14.0,17.0,53,0.00,,,0.00,0.0,meteohub,2013-03-23 02:47:00,
2013-03-22 21:52:00,46.0,29.8,29.61,SE,130,16.0,17.0,53,0.00,,,0.00,0.0,meteohub,2013-03-23 02:52:00,
2013-03-22 21:57:00,46.0,30.4,29.61,SE,135,10.0,18.0,54,0.00,,,0.00,0.0,meteohub,2013-03-23 02:57:00,
2013-03-22 22:02:00,45.9,30.2,29.61,SE,126,14.0,18.0,54,0.00,,,0.00,0.0,meteohub,2013-03-23 03:02:00,
2013-03-22 22:07:00,45.7,30.4,29.61,SE,124,10.0,18.0,55,0.00,,,0.00,0.0,meteohub,2013-03-23 03:07:00,
2013-03-22 22:12:00,45.3,30.0,29.61,SE,126,11.0,18.0,55,0.00,,,0.00,0.0,meteohub,2013-03-23 03:12:00,
2013-03-22 22:17:00,45.0,30.2,29.62,SE,128,11.0,17.0,56,0.00,,,0.00,0.0,meteohub,2013-03-23 03:17:00,
2013-03-22 22:23:00,44.4,30.2,29.61,SE,132,12.0,16.0,57,0.00,,,0.00,0.0,meteohub,2013-03-23 03:23:00,
2013-03-22 22:28:00,44.2,30.4,29.61,ESE,123,11.0,16.0,58,0.00,,,0.00,0.0,meteohub,2013-03-23 03:28:00,
2013-03-22 22:33:00,44.2,30.7,29.62,SE,128,14.0,15.0,59,0.00,,,0.00,0.0,meteohub,2013-03-23 03:33:00,
2013-03-22 22:38:00,44.2,30.7,29.61,ESE,121,18.0,18.0,59,0.00,,,0.00,0.0,meteohub,2013-03-23 03:38:00,
2013-03-22 22:43:00,44.2,31.3,29.62,SE,128,13.0,18.0,60,0.00,,,0.00,0.0,meteohub,2013-03-23 03:43:00,
2013-03-22 22:48:00,44.2,31.6,29.61,SE,124,13.0,20.0,61,0.00,,,0.00,0.0,meteohub,2013-03-23 03:48:00,
2013-03-22 22:53:00,44.2,32.0,29.61,SE,130,15.0,20.0,62,0.00,,,0.00,0.0,meteohub,2013-03-23 03:53:00,
2013-03-22 22:58:00,44.1,31.8,29.61,SE,126,14.0,21.0,62,0.00,,,0.00,0.0,meteohub,2013-03-23 03:58:00,
2013-03-22 23:00:00,44.1,31.8,29.61,SE,129,11.0,21.0,62,0.00,,,0.00,0.0,meteohub,2013-03-23 04:00:00,
2013-03-22 23:06:00,44.1,32.4,29.61,SE,129,15.0,21.0,63,0.00,,,0.00,0.0,meteohub,2013-03-23 04:06:00,
2013-03-22 23:11:00,43.9,32.2,29.62,SE,126,16.0,20.0,63,0.00,,,0.00,0.0,meteohub,2013-03-23 04:11:00,
2013-03-22 23:16:00,43.5,32.2,29.62,SE,130,12.0,20.0,64,0.00,,,0.00,0.0,meteohub,2013-03-23 04:16:00,
2013-03-22 23:21:00,43.5,32.2,29.61,SE,128,11.0,20.0,64,0.00,,,0.00,0.0,meteohub,2013-03-23 04:21:00,
2013-03-22 23:27:00,43.3,32.4,29.61,SE,128,11.0,20.0,65,0.00,,,0.00,0.0,meteohub,2013-03-23 04:27:00,
2013-03-22 23:32:00,43.2,32.2,29.61,SE,130,17.0,20.0,65,0.00,,,0.00,0.0,meteohub,2013-03-23 04:32:00,
2013-03-22 23:37:00,43.0,32.4,29.61,SE,124,20.0,20.0,66,0.00,,,0.00,0.0,meteohub,2013-03-23 04:37:00,
2013-03-22 23:42:00,42.6,32.4,29.60,SE,126,15.0,20.0,67,0.00,,,0.00,0.0,meteohub,2013-03-23 04:42:00,
2013-03-22 23:47:00,42.4,32.2,29.60,SE,132,16.0,21.0,67,0.00,,,0.00,0.0,meteohub,2013-03-23 04:47:00,
2013-03-22 23:52:00,42.4,32.2,29.60,SE,128,17.0,21.0,67,0.00,,,0.00,0.0,meteohub,2013-03-23 04:52:00,
2013-03-22 23:57:00,42.1,32.4,29.60,SE,131,14.0,22.0,68,0.00,,,0.00,0.0,meteohub,2013-03-23 04:57:00,